Home   Weather   Berlin   Past weeks
Flag for Germany

Past Weather in Berlin, Germany — Yesterday and Last 2 Weeks

Now
77 °F

Light rain. Scattered clouds.


Feels Like: 79 °F
Forecast: 84 / 64 °F
Wind: 10 mph from West

Location: Berlin-Tegel

Current Time: Jul 22, 2019 at 4:10:24 pm

Latest Report: Jul 22, 2019 at 3:20 pm


Visibility: N/A

Pressure: 30.18 "Hg

Humidity: 47%

Dew Point: 55 °F

Location of BerlinLocation

Past Weather in Berlin — Graph

°F

Berlin Temperature Yesterday

Maximum temperature yesterday: 81 °F (at 4:50 pm)
Minimum temperature yesterday: 63 °F (at 4:20 am)
Average temperature yesterday: 70 °F

High & Low Weather Summary for the Past Weeks

 TemperatureHumidityPressure
High88 °F (Jul 20, 3:50 pm)100% (Jul 11, 2:20 am)30.21 "Hg (Jul 11, 2:20 am)
Low48 °F (Jul 11, 4:50 am)26% (Jul 18, 3:20 pm)29.77 "Hg (Jul 12, 6:50 pm)
Average65 °F66%29.95 "Hg
* Reported Jul 7 2:50 pm — Jul 22 2:50 pm, Berlin. Weather by CustomWeather, © 2019

Note: Actual official high and low records may vary slightly from our data, if they occured in-between our weather recording intervals... More about our weather records

Advertising

Berlin Weather History for the Previous 24 Hours

Scroll right to see more
 ConditionsComfort  
Time TempWeatherWind HumidityBarometerVisibility
2:50 pm
Mon, Jul 22
77 °FLight rain. Scattered clouds.10 mph47%30.18 "HgN/A
1:50 pm77 °FScattered clouds.9 mph47%30.18 "HgN/A
1:20 pm77 °FScattered clouds.14 mph44%30.18 "HgN/A
12:50 pm75 °FScattered clouds.14 mph47%30.18 "HgN/A
12:20 pm75 °FPassing clouds.9 mph47%30.18 "HgN/A
11:50 am75 °FPassing clouds.12 mph50%30.21 "HgN/A
11:20 am73 °FPassing clouds.9 mph53%30.21 "HgN/A
10:50 am72 °FPassing clouds.9 mph57%30.21 "HgN/A
10:20 am72 °FPassing clouds.5 mph57%30.21 "HgN/A
9:50 am72 °FPassing clouds.3 mph53%30.21 "HgN/A
9:20 am72 °FPassing clouds.2 mph53%30.21 "HgN/A
8:50 am70 °FPassing clouds.1 mph50%30.21 "HgN/A
8:20 am68 °FPassing clouds.2 mph64%30.21 "HgN/A
7:50 am64 °FSunny.1 mph73%30.21 "Hg10 mi
7:20 am63 °FSunny.2 mph77%30.21 "Hg10 mi
6:50 am63 °FSunny.2 mph77%30.21 "Hg10 mi
6:20 am59 °FSunny.2 mph88%30.21 "Hg10 mi
5:50 am59 °FSunny.2 mph88%30.21 "Hg10 mi
5:20 am59 °FSunny.2 mph88%30.18 "Hg10 mi
4:50 am59 °FClear.2 mph88%30.18 "Hg10 mi
4:20 am59 °FClear.2 mph88%30.18 "Hg10 mi
3:50 am59 °FClear.2 mph88%30.18 "Hg10 mi
3:20 am59 °FClear.1 mph82%30.18 "Hg10 mi
2:50 am61 °FClear.1 mph77%30.18 "Hg10 mi
2:20 am64 °FClear.2 mph73%30.18 "Hg10 mi
1:50 am64 °FClear.1 mph73%30.18 "Hg10 mi
1:20 am64 °FClear.2 mph73%30.18 "Hg10 mi
12:50 am66 °FPassing clouds.5 mph68%30.18 "HgN/A
12:20 am66 °FPassing clouds.6 mph64%30.18 "HgN/A
11:50 pm
Sun, Jul 21
68 °FPassing clouds.5 mph60%30.18 "HgN/A
11:20 pm68 °FClear.5 mph64%30.15 "Hg10 mi
10:50 pm68 °FClear.3 mph64%30.15 "Hg10 mi
10:20 pm68 °FClear.2 mph64%30.15 "Hg10 mi
9:50 pm72 °FClear.2 mph53%30.12 "Hg10 mi
9:20 pm73 °FClear.2 mph50%30.12 "Hg10 mi
8:50 pm75 °FPassing clouds.5 mph44%30.12 "HgN/A
8:20 pm77 °FPassing clouds.7 mph42%30.09 "HgN/A
7:50 pm77 °FSunny.9 mph44%30.09 "Hg10 mi
7:20 pm79 °FPassing clouds.8 mph42%30.09 "HgN/A
6:50 pm79 °FPassing clouds.10 mph42%30.09 "HgN/A
6:20 pm79 °FPassing clouds.12 mph42%30.09 "HgN/A
5:50 pm79 °FPassing clouds.9 mph45%30.07 "HgN/A
5:20 pm79 °FPassing clouds.10 mph45%30.09 "HgN/A
4:50 pm81 °FPassing clouds.13 mph42%30.07 "HgN/A
4:20 pm77 °FPassing clouds.12 mph47%30.07 "HgN/A
Weather by CustomWeather, © 2019

See weather overview